Location: Grange Verzio
(44.5000°N, 6.9833°E)
Time: 18:12:08
(UTC+00:00)

Cosmos 2360 Rocket - Pass Details

Date: 01 February 2023
Orbit: 832 x 846 km, 71.0° (Epoch: 29 March)

Event Time Altitude Azimuth Distance (km) Brightness Sun altitude
Rises 18:32:41 0° 199° (SSW) 3,370 5.6 -20.1°
Reaches altitude 10° 18:35:06 10° 198° (SSW) 2,442 4.9 -20.6°
Maximum altitude 18:40:42 79° 113° (ESE) 860 2.0 -21.6°
Enters shadow 18:43:55 27° 30° (NNE) 1,571 3.3 -22.1°
